Погода в Иваничах

Украина / Волынская область     50°38′10″N   24°21′31″E
темп.,
°C
ветер,
м/с
пор.,
м/с
влажн.,
%
обл.,
%
осадки,
мм/ч
давл.,
гПа
погр.,
м
6 марта, сб
сб623:00−3ссз367123 0.0 1024143
02:00−3сз347911 0.0 102696
05:00−3зсз34790 0.0 102596
08:00−2зсз49740 0.0 1027468
11:000сз67580 0.0 10281403
14:00+1зсз685232 0.1 10281696
17:00+1зсз485471 0.1 10271478
20:00−2зюз377036 0.1 1027147
7 марта, вс
вс723:00−1зюз511716 0.0 1026327
02:00−1зюз714713 0.0 1025472
05:00−1зюз715710 0.0 1022671
08:00−1зюз9167319 0.0 1020753
11:00+2з10156898 0.0 10191420
14:00+3з10156499 0.1 10181429
17:00+2з8137099 0.0 10161224
20:000з61288100 0.1 1016819
8 марта, пн
пн823:00−1з6128587 0.0 1015564
02:00−1з5118986 0.1 1015623
05:00−1з61194100 0.4 1013590
08:00−1зсз5995100 1.3 1014568
11:00−1с4677100 1.0 1015731
14:00+2сз575491 1.1 10161627
17:00+1сз586297 0.1 10161163
20:00−2зсз398181 0.1 1019290
9 марта, вт
вт923:00−3сз498469 0.0 1019398
02:00−3сз488538 0.0 1020441
05:00−4ссз47850 0.0 1021431
08:00−4ссз36848 0.0 1023603
11:00−2с345897 0.0 1024957
14:00−1ссв334756 0.0 10241202
17:00−1св224631 0.0 10241264
20:00−3всв235834 0.0 102563
10 марта, ср
ср1023:00−3вюв236298 0.0 1025119
02:00−3ююв226794 0.0 102559
05:00−4ююв12705 0.0 102424
08:00−4ююв12663 0.0 1025102
11:00−1зюз12470 0.0 1025917
14:00+1юз22463 0.0 10231341
17:00+1ююз235159 0.0 10221245
20:00−2ю346930 0.0 102377